EHI
0 0 0 0 0 0 0 0 0 0 0 0 0 1 2 7 13 18 19 18 16 14 10 7 6 5 4 3 3 3 3 2 2 2 3 2 1 1 1 0 0 1 1 1
0 0 0 0 0 0 0 0 0 0 0 0 0 1 2 7 15 20 20 18 15 12 9 7 5 4 3 2 3 3 2 1 1 1 2 2 1 2 2 1 0 0 0 0
0 0 0 0 0 0 0 0 0 0 0 0 1 2 4 9 16 19 19 16 14 11 9 7 5 5 3 2 2 1 1 0 0 0 1 1 1 2 2 2 1 0 0 0
0 0 0 1 1 1 0 0 0 0 1 2 3 5 7 10 14 15 15 12 11 11 10 8 7 6 4 3 1 0 0 0 0 0 0 0 0 1 1 2 1 0 0 0
0 0 0 1 2 1 0 0 0 1 3 5 7 8 8 9 12 12 9 6 7 10 12 10 8 6 6 5 3 1 0 0 0 0 0 0 0 0 0 1 1 0 0 0
0 0 0 1 1 1 0 0 0 1 4 7 8 7 5 6 9 9 5 4 7 11 12 9 6 6 7 7 4 2 0 0 0 0 0 0 0 0 0 0 0 0 0 0
0 0 0 0 0 0 0 0 0 1 3 5 5 2 2 3 6 6 4 4 9 11 9 5 3 4 6 5 3 1 0 0 0 0 0 0 0 0 0 0 0 0 0 0
0 0 0 0 0 0 0 0 0 0 2 3 2 0 1 4 5 4 4 5 7 7 5 3 1 2 3 2 1 0 0 0 0 0 0 0 0 0 0 0 0 0 0 0
0 0 0 0 0 0 1 1 1 0 1 2 2 1 2 3 3 2 3 5 4 4 4 3 1 1 1 0 0 0 0 0 0 0 0 0 0 0 0 0 0 0 0 0
0 0 0 0 0 1 2 2 1 0 1 2 2 2 1 1 1 1 2 3 2 2 3 2 1 0 0 0 0 0 0 0 0 0 0 0 0 0 0 0 0 0 0 0
0 0 0 0 0 1 2 1 0 0 0 1 3 2 1 0 0 0 1 1 1 1 1 1 0 0 0 0 0 0 0 0 0 0 0 0 0 0 0 0 0 0 0 0
0 0 0 0 0 1 1 1 0 0 0 1 2 2 1 0 0 0 0 0 0 0 0 0 0 1 1 1 1 0 0 0 0 0 0 0 0 0 0 0 0 0 0 0
0 0 0 0 0 0 1 1 0 0 0 0 1 1 0 0 0 0 0 0 0 0 0 0 1 2 3 2 1 1 1 1 0 0 0 0 0 0 0 0 0 0 0 0
0 0 0 0 0 0 0 0 0 0 0 0 0 0 0 0 0 0 0 0 0 0 0 0 1 2 2 2 2 2 2 1 0 0 0 0 0 0 0 0 0 0 0 0
0 0 0 0 0 0 0 0 0 0 0 0 0 0 0 0 0 0 0 0 0 0 0 0 0 1 1 1 1 1 1 1 0 0 0 0 0 0 0 0 0 0 0 0
0 0 0 0 0 0 0 0 0 0 0 0 0 0 0 0 0 0 0 0 0 0 0 0 0 0 0 0 0 0 0 0 0 0 0 0 0 0 0 0 0 0 0 0
0 0 0 0 0 0 0 0 0 0 0 0 0 0 0 0 0 0 0 0 0 0 0 0 0 0 0 0 0 0 0 0 0 0 0 0 0 0 0 0 0 0 0 0
0 0 0 0 0 0 0 0 0 0 0 0 0 0 0 0 0 0 0 0 0 0 0 0 0 0 0 0 0 0 0 0 0 0 0 0 0 0 0 0 0 0 0 0
0 0 0 0 0 0 0 0 0 0 0 0 0 0 0 0 0 0 0 0 0 0 0 0 0 0 0 0 0 0 0 0 0 0 0 0 0 0 0 0 0 0 0 0
0 0 0 0 0 0 0 0 0 0 0 0 0 0 0 0 0 0 0 0 0 0 0 0 0 0 0 0 0 0 0 0 0 0 0 0 0 0 0 0 0 0 0 0
0 0 0 0 0 0 0 0 0 0 0 0 0 0 0 0 0 0 0 0 0 0 0 0 0 0 0 0 0 0 0 0 0 0 0 0 0 0 0 0 0 0 0 0
0 0 0 0 0 0 0 0 0 0 0 0 0 0 0 0 0 0 0 0 0 0 0 0 0 0 0 0 0 0 0 0 0 0 0 0 0 0 0 0 0 0 0 0
0 0 0 0 0 0 0 0 0 0 0 0 0 0 0 0 0 0 0 0 0 0 0 0 0 0 0 0 0 0 0 0 0 0 0 0 0 0 0 0 0 0 0 0
0 0 0 0 0 0 0 0 0 0 0 0 0 0 0 0 0 0 0 0 0 0 0 0 0 0 0 0 0 0 0 0 0 0 0 0 0 0 0 0 0 0 0 0
0 0 0 0 0 0 0 0 0 0 0 0 0 0 0 0 0 0 0 0 0 0 0 0 0 0 0 0 0 0 0 0 0 0 0 0 0 0 0 0 0 0 0 0
0 0 0 0 0 0 0 0 0 0 0 0 0 0 0 0 0 0 0 0 0 0 0 0 0 0 0 0 0 0 0 0 0 0 0 0 0 0 0 0 0 0 0 0
0 0 0 0 0 0 0 0 0 0 0 0 0 0 0 0 0 0 0 0 0 0 0 0 0 0 0 0 0 0 0 0 0 0 0 0 0 0 0 0 0 0 0 0
Wind_Speed
6 4 4 5 6 8 7 9 9 9 9 11 10 9 8 6 5 6 7 8 8 7 6 6 5 5 5 4 4 5 5 4 3 3 3 3 3 2 2 2 2 2 2 2
2 3 4 3 5 7 6 5 5 3 8 9 5 3 4 5 7 8 9 9 8 7 7 7 7 6 6 5 4 5 5 4 3 3 3 3 3 3 3 2 2 2 2 2
2 1 4 4 6 6 4 4 7 7 8 3 3 6 8 8 8 10 10 9 9 9 8 7 7 7 6 5 5 5 4 4 4 4 4 3 3 3 3 2 3 3 3 3
3 3 5 9 3 3 4 3 4 5 4 4 5 3 2 4 7 8 7 8 9 8 7 5 5 5 5 5 5 5 4 4 4 4 4 4 4 4 3 2 3 3 3 3
4 4 3 4 1 3 4 3 3 4 3 2 2 3 2 2 4 6 6 6 6 7 7 6 6 6 7 6 5 5 4 3 4 5 5 5 4 4 3 3 3 3 3 4
5 4 7 7 3 1 3 3 2 3 3 3 4 2 4 1 1 3 4 5 6 6 6 6 5 6 7 6 5 4 4 3 3 4 5 5 4 4 3 4 4 4 4 3
5 4 7 6 4 1 5 7 2 3 3 4 4 3 1 2 3 4 6 6 7 7 6 5 5 6 6 5 4 3 4 4 4 4 5 5 4 4 4 4 5 4 5 4
5 4 8 3 1 4 6 2 2 3 3 4 3 3 3 4 5 6 6 7 7 7 6 4 5 6 6 4 3 4 4 5 4 3 3 4 5 5 5 5 5 4 4 4
7 7 4 2 3 3 2 2 2 3 3 6 6 4 4 5 5 5 5 5 5 6 6 4 3 4 5 4 4 4 5 5 4 4 3 4 5 5 5 4 4 3 4 3
1 3 3 2 2 2 0 1 1 3 5 6 7 6 6 6 5 5 5 4 4 6 5 4 3 3 3 3 4 5 5 4 4 4 4 3 3 3 4 4 4 4 4 4
1 2 3 3 2 2 3 4 4 5 5 5 7 7 6 6 5 4 5 4 4 4 4 3 3 3 3 3 4 4 4 4 4 4 4 3 3 2 2 2 3 4 4 4
5 5 4 3 2 1 3 4 4 5 5 4 5 6 6 5 4 4 4 4 4 4 4 3 3 3 2 3 4 4 4 3 3 3 3 3 4 3 7 5 5 5 5 5
4 2 3 1 1 2 3 3 4 5 5 4 4 5 6 5 4 4 4 4 3 3 3 3 3 2 2 2 3 3 3 3 3 3 3 3 4 4 3 5 8 8 7 7
2 3 2 1 1 2 5 5 6 6 5 5 4 4 5 5 5 4 3 3 3 3 3 3 3 2 1 1 2 3 3 3 3 3 3 3 3 3 3 4 4 3 5 7
2 2 4 3 3 3 4 5 6 5 5 5 4 4 5 6 5 3 3 3 4 4 3 3 2 2 1 1 2 3 2 2 2 3 3 3 3 4 3 4 4 4 4 4
1 1 3 4 4 3 4 5 5 4 4 4 4 4 4 5 5 4 4 4 4 3 2 2 2 1 1 1 2 2 2 4 4 3 3 3 4 4 4 4 4 4 4 4
2 2 3 3 4 3 3 3 5 5 5 5 5 5 5 6 5 4 3 3 3 3 2 2 2 2 2 2 2 2 2 3 5 4 3 4 4 4 4 4 4 4 3 4
5 6 5 6 6 5 4 3 4 5 5 4 6 6 5 5 5 4 3 4 4 3 2 2 2 2 3 2 2 2 3 3 3 3 4 4 4 4 4 4 5 5 4 4
3 3 4 5 5 5 5 4 4 5 5 6 6 6 4 3 4 4 4 4 4 2 1 2 3 3 3 3 4 3 3 4 4 4 4 5 4 4 4 4 4 4 4 4
1 1 2 3 4 4 5 5 5 5 5 6 7 6 5 4 4 4 4 3 1 1 2 3 3 3 2 3 5 3 3 4 4 4 4 3 3 3 3 3 4 4 4 4
1 2 3 4 4 4 5 6 7 6 5 6 6 6 5 4 4 4 3 2 1 2 3 4 2 2 2 2 4 3 3 3 3 3 3 3 3 3 3 3 3 3 3 4
1 2 3 5 5 5 4 4 6 7 6 5 6 6 6 5 4 3 2 1 2 3 3 2 2 2 3 3 2 3 3 3 3 2 3 3 3 3 3 3 3 3 3 4
2 3 4 5 6 6 5 5 5 6 6 6 6 5 5 4 3 3 2 1 2 3 2 1 2 3 4 2 2 2 2 3 3 3 3 3 3 3 3 4 4 4 4 4
4 4 4 5 6 7 6 5 5 4 5 5 4 4 4 4 2 1 1 3 3 3 2 2 2 2 3 2 2 2 3 3 3 3 3 3 3 3 4 4 4 4 4 5
5 5 6 6 6 4 5 5 6 5 5 4 4 3 3 2 2 1 2 2 2 2 1 1 2 2 2 2 2 2 3 3 3 3 3 3 3 4 4 4 4 4 5 5
5 5 4 4 4 3 4 4 4 4 3 3 2 2 2 1 2 2 1 2 2 2 1 0 1 1 1 1 2 2 2 2 3 3 3 3 4 4 4 4 6 5 5 5
6 5 5 5 4 4 4 4 4 3 3 3 2 1 1 2 2 2 2 2 1 1 1 0 1 1 1 1 1 2 2 2 3 3 4 4 4 4 5 6 5 5 5 5
Wind_Direction
216 206 177 180 173 167 171 176 177 217 223 247 237 225 219 202 180 171 175 180 184 181 175 168 168 171 169 166 160 152 149 157 169 162 154 147 143 147 147 147 159 160 154 157
223 198 188 196 193 177 182 176 197 213 248 249 244 204 206 197 181 187 192 189 183 176 173 176 178 174 169 168 164 152 153 159 154 145 141 141 138 131 124 123 123 123 134 146
205 202 122 218 207 186 182 183 173 200 236 247 209 204 206 200 194 197 195 187 181 181 180 181 178 171 170 165 153 151 155 154 152 149 146 146 138 124 122 122 117 111 111 119
134 120 195 236 248 186 169 200 209 223 241 222 224 215 213 202 196 199 191 181 178 174 169 166 160 152 147 139 144 154 157 156 153 148 146 137 129 127 123 120 120 116 112 112
124 165 250 292 246 167 162 229 222 216 230 172 128 65 336 258 206 198 186 170 165 161 155 153 152 148 138 137 142 151 162 165 167 158 151 147 148 140 125 119 111 108 108 114
127 149 212 235 267 257 119 264 258 185 183 159 124 145 257 278 141 128 121 126 133 131 128 135 141 139 136 142 147 158 164 162 156 151 152 155 151 137 122 119 117 112 101 99
147 185 248 253 290 99 159 231 242 178 178 167 171 201 204 91 82 96 105 113 118 118 121 127 130 131 135 141 154 155 142 139 135 143 146 144 138 130 128 123 117 110 103 91
143 171 242 284 35 177 213 232 178 171 165 153 128 91 80 84 92 97 102 107 115 115 110 107 121 131 135 141 138 125 126 121 118 123 132 133 133 126 123 126 127 123 116 103
180 203 240 282 247 266 214 187 196 166 148 135 125 117 100 93 92 88 93 100 101 109 105 91 96 125 136 134 131 129 124 124 124 120 114 126 134 136 133 130 134 133 129 125
199 275 293 308 303 318 13 159 139 131 129 131 132 130 122 111 100 92 89 95 100 106 108 103 93 94 106 117 127 133 136 137 136 135 127 121 128 138 145 150 153 150 148 147
225 279 330 340 351 16 57 78 86 89 100 121 128 129 129 120 113 107 96 86 94 109 108 100 95 94 97 111 122 124 131 135 135 135 136 124 111 102 136 145 173 167 168 162
208 217 191 246 303 75 104 104 110 106 94 93 116 125 116 113 111 109 101 96 97 97 98 93 91 94 102 119 130 134 138 142 143 143 143 138 129 98 62 77 95 111 123 135
213 189 173 203 20 71 101 100 96 100 113 110 97 114 120 114 108 103 101 100 102 104 106 103 98 89 90 120 135 144 151 153 151 153 156 153 150 147 132 82 76 85 104 120
195 135 125 172 149 97 102 100 92 85 85 96 100 102 107 104 101 100 101 102 101 100 97 93 89 69 54 110 126 134 143 154 154 155 155 154 151 153 152 146 131 94 78 104
254 196 174 155 129 113 109 111 105 99 97 90 97 109 115 117 119 115 106 102 102 96 87 83 75 46 49 114 127 132 137 143 148 145 143 144 141 138 135 133 131 126 114 99
286 114 133 137 146 144 132 131 130 134 130 122 121 124 123 119 114 105 98 105 112 114 102 93 77 41 68 108 120 125 134 140 134 132 134 133 133 134 136 137 136 140 144 141
158 171 172 175 182 180 173 163 158 154 146 140 138 129 121 115 109 103 95 95 99 98 99 101 91 77 92 107 117 123 127 134 129 125 126 129 131 133 137 141 145 147 148 150
222 213 196 189 188 186 182 161 152 144 142 142 131 126 130 136 141 137 126 114 101 85 71 81 89 88 87 92 101 104 113 115 117 118 117 118 122 128 133 135 140 139 133 138
254 226 205 191 180 169 170 162 152 139 132 135 136 135 134 133 129 126 125 124 121 112 85 92 100 94 94 101 103 102 111 112 109 107 110 116 119 122 129 135 139 143 146 151
248 196 170 155 140 143 150 138 129 127 132 136 130 124 123 123 124 125 126 121 129 135 135 126 118 109 107 114 110 106 110 113 114 114 114 119 127 130 133 141 147 152 157 163
83 110 124 128 122 122 133 136 135 135 133 133 133 134 132 125 122 125 127 121 108 120 128 130 125 126 121 120 115 112 113 117 123 129 133 133 136 139 147 156 161 166 171 175
67 106 121 121 117 111 109 118 126 128 127 128 126 125 126 125 123 113 109 131 138 132 127 129 131 139 138 129 124 122 123 125 125 129 137 144 153 164 171 175 181 185 188 188
80 98 107 114 118 114 103 104 114 125 131 135 137 139 140 141 143 136 125 127 132 140 137 149 159 159 153 142 143 146 150 151 154 162 170 175 181 186 191 197 201 200 199 200
87 93 97 101 104 106 105 103 103 107 112 114 122 132 135 132 119 115 132 144 150 152 157 176 181 185 176 170 171 174 181 183 182 185 190 192 197 200 205 208 210 210 209 209
90 91 93 98 101 104 108 107 101 98 97 98 105 115 123 128 137 145 135 155 165 158 163 202 202 191 182 185 187 189 193 197 197 196 202 204 207 210 213 214 215 213 214 216
84 85 85 85 93 101 103 101 99 100 100 96 83 85 96 102 120 128 137 153 155 155 152 155 183 187 187 189 193 196 199 202 204 208 211 211 214 215 217 216 216 216 218 220
74 76 79 77 75 83 91 95 102 106 110 116 105 78 90 103 109 119 127 135 143 149 161 189 205 201 203 213 222 221 219 219 218 217 217 216 216 217 219 218 217 217 217 219